GW0206 Weather Reports


time (UTC)temp
F
wind
direction
speed
knots
gust
knots
rain 1hr
in
rain 24hr
in
rain mn
in
humidity
%
barometer
mb
20260504204509 72 37 9.6 18.2 0.00 0.00 0.00 57 1005.8
20260504204007 71 32 8.7 16.5 0.00 0.00 0.00 55 1005.6
20260504203507 71 28 7.0 15.6 0.00 0.00 0.00 55 1005.6
20260504203028 72 5 4.3 14.8 0.00 0.00 0.00 55 1005.6
20260504202502 72 69 8.7 17.4 0.00 0.00 0.00 54 1005.8
20260504202001 72 57 9.6 17.4 0.00 0.00 0.00 53 1005.9
20260504201508 73 31 8.7 23.5 0.00 0.00 0.00 53 1005.8
20260504201003 73 75 10.4 23.5 0.00 0.00 0.00 53 1005.8
20260504200504 73 62 7.0 15.6 0.00 0.00 0.00 53 1005.9
20260504200016 73 55 8.7 16.5 0.00 0.00 0.00 53 1006.0
20260504195504 73 42 7.8 16.5 0.00 0.00 0.00 55 1006.2
20260504195004 72 62 7.0 15.6 0.00 0.00 0.00 54 1006.1
20260504194522 72 57 7.0 22.6 0.00 0.00 0.00 56 1006.2
20260504194005 71 16 9.6 22.6 0.00 0.00 0.00 54 1006.2
20260504193506 71 45 7.0 20.0 0.00 0.00 0.00 55 1006.3
20260504193017 71 53 8.7 20.0 0.00 0.00 0.00 55 1006.6
20260504192506 71 67 7.8 19.1 0.00 0.00 0.00 57 1006.6
20260504192013 71 19 8.7 19.1 0.00 0.00 0.00 56 1006.7
20260504191513 71 41 9.6 20.0 0.00 0.00 0.00 56 1006.8
20260504191002 70 59 9.6 20.9 0.00 0.00 0.00 55 1006.7
20260504190503 70 39 9.6 20.9 0.00 0.00 0.00 55 1006.8
20260504190011 70 51 10.4 20.0 0.00 0.00 0.00 54 1006.9
20260504185504 70 360 7.8 20.0 0.00 0.00 0.00 55 1006.8
20260504185007 70 24 10.4 21.7 0.00 0.00 0.00 55 1006.9
20260504184523 70 46 6.1 21.7 0.00 0.00 0.00 59 1007.0
20260504184011 70 32 11.3 19.1 0.00 0.00 0.00 55 1007.0
20260504183508 70 48 9.6 17.4 0.00 0.00 0.00 54 1007.0
20260504183020 70 53 8.7 17.4 0.00 0.00 0.00 56 1007.1
20260504182512 70 103 9.6 16.5 0.00 0.00 0.00 56 1007.0
20260504182003 69 38 8.7 16.5 0.00 0.00 0.00 58 1007.0
20260504181517 70 51 8.7 15.6 0.00 0.00 0.00 56 1007.2
20260504181012 69 85 7.8 15.6 0.00 0.00 0.00 57 1007.1
20260504180513 69 67 8.7 15.6 0.00 0.00 0.00 56 1007.2
20260504180014 69 5 7.0 14.8 0.00 0.00 0.00 56 1007.2
20260504175509 69 71 8.7 14.8 0.00 0.00 0.00 56 1007.5
20260504175005 69 69 9.6 15.6 0.00 0.00 0.00 56 1007.4
20260504174513 69 339 10.4 15.6 0.00 0.00 0.00 57 1007.6
20260504174003 68 59 7.0 18.2 0.00 0.00 0.00 54 1007.6
20260504173502 68 92 10.4 18.2 0.00 0.00 0.00 57 1007.7
20260504173005 68 15 6.1 15.6 0.00 0.00 0.00 54 1007.7
20260504172502 68 24 6.1 14.8 0.00 0.00 0.00 58 1007.7
20260504172003 68 28 7.0 13.9 0.00 0.00 0.00 54 1007.8
20260504171505 68 355 7.0 15.6 0.00 0.00 0.00 55 1007.8
20260504171003 68 44 7.8 15.6 0.00 0.00 0.00 55 1007.8
20260504170503 67 65 7.8 16.5 0.00 0.00 0.00 59 1007.9
20260504151005 62 360 5.2 12.2 0.00 0.00 0.00 61 1008.9
20260504150503 62 26 7.0 12.2 0.00 0.00 0.00 60 1008.9
20260504141006 60 29 4.3 11.3 0.00 0.00 0.00 62 1009.3
20260504140504 59 27 6.1 12.2 0.00 0.00 0.00 61 1009.3
20260504130504 56 63 6.1 11.3 0.00 0.00 0.00 62 1009.7
20260504110508 48 51 3.5 8.7 0.00 0.00 0.00 70 1009.5
20260504100514 48 347 2.6 7.0 0.00 0.00 0.00 69 1009.2
20260504082005 50 23 4.3 9.6 0.00 0.00 0.00 63 1009.9
20260504081518 50 38 3.5 9.6 0.00 0.00 0.00 63 1010.0
20260504081005 50 45 5.2 9.6 0.00 0.00 0.00 63 1010.1
20260504080502 50 24 5.2 9.6 0.00 0.00 0.00 62 1010.1
20260504050509 48 17 1.7 4.3 0.00 0.00 0.00 69 1012.2
20260504050016 48 30 2.6 4.3 0.00 0.00 0.00 69 1012.3
20260504045507 48 32 1.7 4.3 0.00 0.00 0.00 68 1012.4
20260504045007 48 17 1.7 4.3 0.00 0.00 0.00 68 1012.4
20260504044518 49 28 1.7 5.2 0.00 0.00 0.00 68 1012.4
20260504044007 49 37 2.6 5.2 0.00 0.00 0.00 67 1012.4
20260504043507 49 42 1.7 4.3 0.00 0.00 0.00 67 1012.4
20260504043038 49 31 1.7 5.2 0.00 0.00 0.00 67 1012.4
20260504042504 49 19 1.7 6.1 0.00 0.00 0.00 66 1012.4
20260504042008 50 40 2.6 6.1 0.00 0.00 0.00 66 1012.4
20260504041535 50 42 1.7 5.2 0.00 0.00 0.00 66 1012.4
20260504041009 50 59 2.6 5.2 0.00 0.00 0.00 66 1012.5
20260504040509 50 33 2.6 7.0 0.00 0.00 0.00 66 1012.7
20260504040018 50 58 3.5 7.0 0.00 0.00 0.00 66 1012.7
20260504035508 50 42 2.6 6.1 0.00 0.00 0.00 66 1012.7
20260504035005 50 15 2.6 7.0 0.00 0.00 0.00 66 1012.7
20260504034519 50 28 2.6 7.0 0.00 0.00 0.00 66 1012.8
20260504034010 50 51 2.6 7.0 0.00 0.00 0.00 66 1012.8
20260504033506 50 69 3.5 7.0 0.00 0.00 0.00 66 1012.8
20260504033019 50 65 3.5 7.0 0.00 0.00 0.00 66 1012.8
20260504032507 50 50 2.6 5.2 0.00 0.00 0.00 65 1012.7
20260504032011 50 28 2.6 4.3 0.00 0.00 0.00 65 1012.8
20260504031526 50 50 2.6 7.0 0.00 0.00 0.00 65 1012.8
20260504031006 50 59 3.5 7.0 0.00 0.00 0.00 65 1012.9
20260504030512 50 42 2.6 6.1 0.00 0.00 0.00 65 1012.8
20260504030032 50 76 2.6 7.0 0.00 0.00 0.00 64 1012.9
20260504025509 50 63 4.3 7.8 0.00 0.00 0.00 64 1012.9
20260504025006 50 82 4.3 8.7 0.00 0.00 0.00 64 1013.0
20260504024521 50 57 3.5 13.9 0.00 0.00 0.00 63 1013.0
20260504024008 50 72 4.3 13.9 0.00 0.00 0.00 63 1013.1
20260504023507 50 65 7.8 13.9 0.00 0.00 0.00 63 1013.2
20260504023003 50 77 5.2 13.9 0.00 0.00 0.00 63 1013.3
20260504022502 50 74 7.8 13.9 0.00 0.00 0.00 62 1013.3
20260504022002 50 76 3.5 10.4 0.00 0.00 0.00 61 1013.4
20260504021503 50 83 5.2 10.4 0.00 0.00 0.00 60 1013.3
20260504021001 50 49 6.1 12.2 0.00 0.00 0.00 60 1013.2
20260504020501 50 76 5.2 13.0 0.00 0.00 0.00 59 1013.2
20260504020003 51 98 6.1 17.4 0.00 0.00 0.00 58 1013.2
20260504015503 50 74 7.8 17.4 0.00 0.00 0.00 57 1013.1
20260504015004 50 80 5.2 9.6 0.00 0.00 0.00 57 1012.9
20260504014505 51 59 3.5 7.8 0.00 0.00 0.00 57 1012.9
20260504014004 51 36 3.5 7.8 0.00 0.00 0.00 56 1012.8
20260504013502 51 47 2.6 7.0 0.00 0.00 0.00 56 1012.6
20260504013004 51 55 2.6 7.8 0.00 0.00 0.00 56 1012.7
20260504012502 51 50 4.3 7.8 0.00 0.00 0.00 55 1012.7
20260504012003 51 61 3.5 7.8 0.00 0.00 0.00 55 1012.7
20260504011510 51 43 3.5 7.8 0.00 0.00 0.00 56 1012.7
20260504011001 51 36 3.5 7.8 0.00 0.00 0.00 55 1012.7
20260504010503 51 63 3.5 6.1 0.00 0.00 0.00 55 1012.8
20260504010003 51 26 3.5 6.1 0.00 0.00 0.00 55 1012.8
20260504005503 52 53 2.6 6.1 0.00 0.00 0.00 55 1012.7
20260504005004 52 42 2.6 7.8 0.00 0.00 0.00 55 1012.8
20260504004503 52 57 3.5 7.8 0.00 0.00 0.00 54 1012.7
20260504004002 52 36 3.5 7.8 0.00 0.00 0.00 54 1012.8
20260504003506 53 62 3.5 7.8 0.00 0.00 0.00 53 1012.8
20260504003005 53 55 4.3 7.8 0.00 0.00 0.00 53 1012.7
20260504002502 53 32 3.5 7.8 0.00 0.00 0.00 54 1012.7
20260504002004 54 38 3.5 9.6 0.00 0.00 0.00 53 1012.8
20260504001504 54 49 4.3 9.6 0.00 0.00 0.00 52 1012.8
20260504001002 54 51 4.3 8.7 0.00 0.00 0.00 51 1012.8
20260504000502 54 57 4.3 8.7 0.00 0.00 0.00 51 1012.8
20260504000004 55 74 4.3 8.7 0.00 0.00 0.00 51 1012.8
20260503235502 55 66 4.3 8.7 0.00 0.00 0.00 50 1012.9
20260503235003 55 88 2.6 8.7 0.00 0.00 0.00 51 1013.0
20260503234505 55 105 3.5 9.6 0.00 0.00 0.00 50 1013.0
20260503234003 55 74 6.1 11.3 0.00 0.00 0.00 48 1013.0
20260503233503 56 86 4.3 13.0 0.00 0.00 0.00 49 1013.0
20260503233003 56 64 7.8 14.8 0.00 0.00 0.00 47 1013.0
20260503232505 56 41 5.2 14.8 0.00 0.00 0.00 47 1013.0
20260503232003 57 44 7.0 13.9 0.00 0.00 0.00 47 1013.1
20260503231503 57 116 6.1 15.6 0.00 0.00 0.00 47 1013.1
20260503231003 57 70 5.2 15.6 0.00 0.00 0.00 47 1013.1
20260503230503 57 71 7.8 15.6 0.00 0.00 0.00 45 1013.0
20260503230004 58 110 7.0 15.6 0.00 0.00 0.00 45 1013.0
20260503225505 58 38 8.7 14.8 0.00 0.00 0.00 46 1012.9
20260503225005 58 76 8.7 18.2 0.00 0.00 0.00 46 1013.0
20260503224506 57 57 8.7 18.2 0.00 0.00 0.00 46 1013.0
20260503224002 57 44 9.6 21.7 0.00 0.00 0.00 46 1013.0
20260503223503 57 83 9.6 21.7 0.00 0.00 0.00 46 1012.9
20260503223008 57 65 7.0 13.0 0.00 0.00 0.00 46 1013.1
20260503222503 57 131 7.0 14.8 0.00 0.00 0.00 47 1013.1
20260503222003 57 101 7.0 14.8 0.00 0.00 0.00 47 1013.2
20260503221503 58 59 7.0 15.6 0.00 0.00 0.00 46 1013.1
20260503221003 58 69 9.6 15.6 0.00 0.00 0.00 45 1013.1
20260503220503 58 98 7.8 15.6 0.00 0.00 0.00 46 1013.1
20260503220007 58 40 7.8 15.6 0.00 0.00 0.00 44 1013.2
20260503215502 58 82 8.7 17.4 0.00 0.00 0.00 44 1013.1
20260503215002 59 101 10.4 17.4 0.00 0.00 0.00 43 1013.1
20260503214504 59 65 7.0 13.9 0.00 0.00 0.00 46 1013.2
20260503214003 59 82 5.2 16.5 0.00 0.00 0.00 44 1013.2
20260503213506 59 102 9.6 17.4 0.00 0.00 0.00 44 1013.2
20260503213006 58 114 9.6 17.4 0.00 0.00 0.00 44 1013.2
20260503212504 58 104 7.8 18.2 0.00 0.00 0.00 44 1013.2
20260503212004 58 87 7.0 20.0 0.00 0.00 0.00 44 1013.2
20260503211506 58 75 9.6 20.9 0.00 0.00 0.00 45 1013.2
20260503211003 58 55 7.0 20.9 0.00 0.00 0.00 45 1013.2
20260503210507 59 69 8.7 17.4 0.00 0.00 0.00 43 1013.3
20260503210006 59 63 8.7 15.6 0.00 0.00 0.00 44 1013.2
20260503205503 59 40 10.4 17.4 0.00 0.00 0.00 43 1013.1
20260503205004 59 59 11.3 17.4 0.00 0.00 0.00 43 1013.2